JA0BES-13 Weather Reports


Display with metric or nautical units.
time (UTC)temp
F
wind
direction
speed
MPH
gust
MPH
rain 1hr
in
rain 24hr
in
rain mn
in
humidity
%
barometer
mb
20190120042035 35 172 0.0 1.0 0.00 0.00 0.00 100 1002.3
20190120041034 35 225 0.0 1.0 0.00 0.00 0.00 100 1002.4
20190120040034 35 225 0.0 0.0 0.00 0.00 0.00 100 1002.3
20190120035033 35 225 0.0 0.0 0.00 0.00 0.00 100 1002.5
20190120034033 35 225 0.0 0.0 0.00 0.00 0.00 100 1002.7
20190120033033 35 225 0.0 0.0 0.00 0.00 0.00 100 1002.9
20190120032033 35 225 0.0 0.0 0.00 0.00 0.00 100 1003.2
20190120031032 35 225 0.0 0.0 0.00 0.00 0.00 100 1003.4
20190120030032 35 180 0.0 0.0 0.00 0.00 0.00 100 1003.6
20190120025031 35 225 0.0 0.0 0.00 0.00 0.00 100 1004.2
20190120024031 34 225 0.0 0.0 0.00 0.00 0.00 100 1004.0
20190120023031 34 222 0.0 0.0 0.00 0.00 0.00 100 1004.9
20190120022031 33 225 0.0 0.0 0.00 0.00 0.00 100 1005.0
20190120021030 33 225 0.0 0.0 0.00 0.00 0.00 100 1004.9
20190120020030 33 225 0.0 0.0 0.00 0.00 0.00 100 1005.4
20190120015029 33 225 0.0 1.0 0.00 0.00 0.00 100 1005.6
20190120014029 32 225 0.0 0.0 0.00 0.00 0.00 100 1005.7
20190120013029 32 225 0.0 0.0 0.00 0.00 0.00 99 1005.9
20190120012028 32 220 0.0 0.0 0.00 0.00 0.00 99 1006.3
20190120011028 32 225 0.0 0.0 0.00 0.00 0.00 99 1006.3
20190120010028 32 180 0.0 1.0 0.00 0.00 0.00 99 1006.2
20190120005027 31 225 0.0 1.0 0.00 0.00 0.00 98 1006.3
20190120004027 31 225 0.0 0.0 0.00 0.00 0.00 98 1006.6
20190120003026 31 225 0.0 1.0 0.00 0.00 0.00 97 1006.8
20190120002026 31 135 0.0 0.0 0.00 0.00 0.00 97 1007.0
20190120001026 31 225 0.0 0.0 0.00 0.00 0.00 97 1007.2
20190120000026 30 225 0.0 1.0 0.00 0.00 0.00 97 1007.2
20190119235025 30 225 0.0 0.0 0.00 0.00 0.00 97 1007.3
20190119234025 30 225 0.0 1.0 0.00 0.00 0.00 96 1007.3
20190119233024 30 225 0.0 0.0 0.00 0.00 0.00 97 1007.6
20190119232024 30 225 0.0 0.0 0.00 0.00 0.00 96 1007.4
20190119231023 30 225 0.0 0.0 0.00 0.00 0.00 96 1007.6
20190119230023 30 225 0.0 0.0 0.00 0.00 0.00 96 1007.8
20190119225023 30 225 0.0 0.0 0.00 0.00 0.00 96 1007.7
20190119224023 30 225 0.0 0.0 0.00 0.00 0.00 96 1008.3
20190119223022 29 225 0.0 0.0 0.00 0.00 0.00 96 1008.2
20190119222022 29 225 0.0 0.0 0.00 0.00 0.00 96 1008.6
20190119221021 29 225 0.0 0.0 0.00 0.00 0.00 96 1008.5
20190119220021 29 225 0.0 0.0 0.00 0.00 0.00 96 1008.7
20190119215021 29 225 0.0 0.0 0.00 0.00 0.00 96 1009.1
20190119214021 29 225 0.0 0.0 0.00 0.00 0.00 96 1008.9
20190119213020 29 225 0.0 0.0 0.00 0.00 0.00 96 1008.9
20190119212020 29 225 0.0 0.0 0.00 0.00 0.00 95 1009.1
20190119211019 28 225 0.0 0.0 0.00 0.00 0.00 95 1009.2
20190119210019 29 225 0.0 1.0 0.00 0.00 0.00 96 1009.6
20190119205019 28 225 0.0 0.0 0.00 0.00 0.00 95 1009.3
20190119204018 28 225 0.0 0.0 0.00 0.00 0.00 94 1009.4
20190119203018 28 225 0.0 0.0 0.00 0.00 0.00 94 1009.4
20190119202018 28 225 0.0 0.0 0.00 0.00 0.00 94 1009.5
20190119201017 28 225 0.0 0.0 0.00 0.00 0.00 94 1009.5
20190119200018 28 225 0.0 0.0 0.00 0.00 0.00 93 1009.6
20190119195016 28 225 0.0 0.0 0.00 0.00 0.00 93 1010.1
20190119194016 28 225 0.0 0.0 0.00 0.00 0.00 93 1010.1
20190119193015 28 225 0.0 0.0 0.00 0.00 0.00 93 1010.4
20190119192015 28 225 0.0 0.0 0.00 0.00 0.00 92 1010.3
20190119191015 28 225 0.0 0.0 0.00 0.00 0.00 91 1010.8
20190119190016 28 225 0.0 0.0 0.00 0.00 0.00 92 1010.9
20190119185014 28 225 0.0 0.0 0.00 0.00 0.00 91 1011.1
20190119184014 28 225 0.0 0.0 0.00 0.00 0.00 91 1011.4
20190119183013 28 225 0.0 0.0 0.00 0.00 0.00 91 1011.4
20190119182013 28 225 0.0 0.0 0.00 0.00 0.00 91 1011.4
20190119181013 28 225 0.0 0.0 0.00 0.00 0.00 90 1011.9
20190119180013 28 225 0.0 0.0 0.00 0.00 0.00 90 1011.8
20190119175012 28 225 0.0 0.0 0.00 0.00 0.00 90 1011.9
20190119174012 28 225 0.0 0.0 0.00 0.00 0.00 89 1012.2
20190119173011 28 225 0.0 0.0 0.00 0.00 0.00 89 1012.0
20190119172011 28 225 0.0 0.0 0.00 0.00 0.00 89 1012.6
20190119171010 28 225 0.0 0.0 0.00 0.00 0.00 88 1012.6
20190119170010 29 225 0.0 0.0 0.00 0.00 0.00 89 1012.7
20190119165010 29 198 0.0 0.0 0.00 0.00 0.00 89 1013.0
20190119164010 29 225 0.0 0.0 0.00 0.00 0.00 88 1012.9
20190119163009 29 225 0.0 0.0 0.00 0.00 0.00 88 1013.0
20190119162009 29 225 0.0 1.0 0.00 0.00 0.00 88 1012.9
20190119161008 29 225 0.0 0.0 0.00 0.00 0.00 88 1013.2
20190119160008 29 225 0.0 0.0 0.00 0.00 0.00 87 1013.3
20190119155008 30 225 0.0 0.0 0.00 0.00 0.00 87 1013.7
20190119154008 30 225 0.0 0.0 0.00 0.00 0.00 87 1013.7
20190119153007 30 225 0.0 0.0 0.00 0.00 0.00 86 1013.8
20190119152007 30 225 0.0 0.0 0.00 0.00 0.00 86 1014.2
20190119151006 30 225 0.0 0.0 0.00 0.00 0.00 86 1014.0
20190119150007 31 225 0.0 0.0 0.00 0.00 0.00 85 1014.6
20190119145006 31 225 0.0 0.0 0.00 0.00 0.00 86 1014.8
20190119144007 31 225 0.0 0.0 0.00 0.00 0.00 86 1015.0
20190119143005 31 225 0.0 0.0 0.00 0.00 0.00 85 1015.0
20190119142005 32 225 0.0 0.0 0.00 0.00 0.00 85 1015.2
20190119141004 32 225 0.0 0.0 0.00 0.00 0.00 85 1015.3
20190119140004 32 225 0.0 0.0 0.00 0.00 0.00 85 1015.6
20190119135004 32 225 0.0 0.0 0.00 0.00 0.00 85 1015.5
20190119134003 32 213 0.0 0.0 0.00 0.00 0.00 85 1015.4
20190119132001 32 225 0.0 0.0 0.00 0.00 0.00 85 1015.5
20190119131000 33 225 0.0 0.0 0.00 0.00 0.00 84 1015.6
20190119130000 33 225 0.0 0.0 0.00 0.00 0.00 84 1015.8
20190119124959 33 225 0.0 0.0 0.00 0.00 0.00 84 1015.9
20190119123959 33 225 0.0 0.0 0.00 0.00 0.00 83 1015.9
20190119122959 34 225 0.0 0.0 0.00 0.00 0.00 82 1016.1
20190119121958 34 225 0.0 0.0 0.00 0.00 0.00 82 1016.1
20190119120958 34 225 0.0 0.0 0.00 0.00 0.00 81 1016.2
20190119115958 35 225 0.0 0.0 0.00 0.00 0.00 82 1016.1
20190119114957 35 225 0.0 0.0 0.00 0.00 0.00 81 1016.3
20190119113957 35 225 0.0 0.0 0.00 0.00 0.00 81 1016.5
20190119112956 35 225 0.0 0.0 0.00 0.00 0.00 81 1016.6
20190119111956 36 209 0.0 0.0 0.00 0.00 0.00 80 1016.8
20190119110956 36 225 0.0 0.0 0.00 0.00 0.00 79 1017.0
20190119105956 36 225 0.0 0.0 0.00 0.00 0.00 79 1017.0
20190119104955 36 225 0.0 1.0 0.00 0.00 0.00 79 1016.9
20190119103955 37 238 1.0 1.0 0.00 0.00 0.00 78 1017.0
20190119102954 38 225 0.0 0.0 0.00 0.00 0.00 78 1017.1
20190119101954 38 225 0.0 0.0 0.00 0.00 0.00 77 1017.0
20190119100954 38 225 0.0 0.0 0.00 0.00 0.00 76 1017.2
20190119095954 38 225 0.0 0.0 0.00 0.00 0.00 76 1017.2
20190119094953 39 225 0.0 0.0 0.00 0.00 0.00 75 1017.3
20190119093953 39 225 0.0 0.0 0.00 0.00 0.00 75 1017.3
20190119092952 39 225 0.0 0.0 0.00 0.00 0.00 74 1017.1
20190119091952 39 225 0.0 0.0 0.00 0.00 0.00 74 1017.3
20190119090951 40 225 0.0 0.0 0.00 0.00 0.00 73 1017.3
20190119085951 40 225 0.0 0.0 0.00 0.00 0.00 73 1017.4
20190119084951 40 225 0.0 0.0 0.00 0.00 0.00 72 1017.3
20190119083951 41 225 0.0 0.0 0.00 0.00 0.00 71 1017.6
20190119082950 41 225 0.0 0.0 0.00 0.00 0.00 71 1017.7
20190119081950 41 225 0.0 0.0 0.00 0.00 0.00 71 1017.5
20190119080949 41 225 0.0 1.0 0.00 0.00 0.00 71 1017.6
20190119075949 42 225 0.0 1.0 0.00 0.00 0.00 69 1017.5
20190119074949 42 225 0.0 1.0 0.00 0.00 0.00 69 1017.6
20190119073949 43 225 0.0 1.0 0.00 0.00 0.00 68 1017.4
20190119072948 43 225 0.0 0.0 0.00 0.00 0.00 68 1017.4
20190119071948 44 129 1.0 1.0 0.00 0.00 0.00 67 1017.3
20190119070947 44 225 0.0 0.0 0.00 0.00 0.00 66 1017.5
20190119065947 44 225 0.0 1.0 0.00 0.00 0.00 65 1017.3
20190119064946 45 225 0.0 0.0 0.00 0.00 0.00 64 1017.5
20190119063946 46 270 0.0 1.0 0.00 0.00 0.00 64 1017.8
20190119062946 46 225 0.0 1.0 0.00 0.00 0.00 63 1017.7
20190119061946 46 225 0.0 1.0 0.00 0.00 0.00 63 1017.8
20190119060945 47 225 0.0 0.0 0.00 0.00 0.00 62 1017.6
20190119055945 47 225 1.0 2.0 0.00 0.00 0.00 60 1017.5
20190119054944 49 225 0.0 1.0 0.00 0.00 0.00 59 1017.7
20190119053944 50 225 0.0 1.0 0.00 0.00 0.00 58 1017.5
20190119052944 51 220 0.0 0.0 0.00 0.00 0.00 58 1017.6
20190119051944 51 216 0.0 1.0 0.00 0.00 0.00 57 1017.5
20190119050943 52 225 0.0 1.0 0.00 0.00 0.00 57 1017.5
20190119045943 53 270 0.0 1.0 0.00 0.00 0.00 58 1017.5
20190119044942 53 225 0.0 2.0 0.00 0.00 0.00 55 1017.4
20190119043942 53 144 1.0 2.0 0.00 0.00 0.00 56 1017.5
20190119042941 52 128 1.0 4.0 0.00 0.00 0.00 55 1017.5